Time,TemperatureF,DewpointF,PressureIn,WindDirection,WindDirectionDegrees,WindSpeedMPH,WindSpeedGustMPH,Humidity,HourlyPrecipIn,Conditions,Clouds,dailyrainin,SoftwareType,DateUTC
2013-11-07 00:05:00,52.2,48.0,29.93,North,0,1.0,1.0,84,0.00,,,0.00,vanprod,2013-11-07 05:05:00,
2013-11-07 00:15:00,52.0,47.0,29.93,South,169,0.0,0.0,84,0.00,,,0.00,vanprod,2013-11-07 05:15:00,
2013-11-07 00:25:00,51.9,47.0,29.93,South,169,0.0,2.0,84,0.00,,,0.00,vanprod,2013-11-07 05:25:00,
2013-11-07 00:35:00,52.0,47.0,29.92,SSE,162,1.0,5.0,84,0.00,,,0.00,vanprod,2013-11-07 05:35:00,
2013-11-07 00:45:00,52.0,47.0,29.91,SSE,162,1.0,0.0,84,0.00,,,0.00,vanprod,2013-11-07 05:45:00,
2013-11-07 00:55:00,52.2,47.0,29.91,SSE,162,2.0,2.0,83,0.00,,,0.00,vanprod,2013-11-07 05:55:00,
2013-11-07 01:05:00,52.2,47.0,29.90,South,183,1.0,2.0,83,0.00,,,0.00,vanprod,2013-11-07 06:05:00,
2013-11-07 01:15:00,52.5,47.0,29.89,South,183,1.0,0.0,82,0.00,,,0.00,vanprod,2013-11-07 06:15:00,
2013-11-07 01:25:00,52.5,47.0,29.89,South,183,1.0,2.0,82,0.00,,,0.00,vanprod,2013-11-07 06:25:00,
2013-11-07 01:35:00,52.3,47.0,29.89,East,79,2.0,2.0,82,0.00,,,0.00,vanprod,2013-11-07 06:35:00,
2013-11-07 01:45:00,52.3,47.0,29.88,East,79,2.0,2.0,83,0.00,,,0.00,vanprod,2013-11-07 06:45:00,
2013-11-07 01:55:00,52.6,47.0,29.88,South,191,2.0,2.0,82,0.00,,,0.00,vanprod,2013-11-07 06:55:00,
2013-11-07 02:05:00,52.5,47.0,29.88,South,191,1.0,1.0,83,0.00,,,0.00,vanprod,2013-11-07 07:05:00,
2013-11-07 02:15:00,52.2,47.0,29.87,South,191,2.0,0.0,83,0.00,,,0.00,vanprod,2013-11-07 07:15:00,
2013-11-07 02:25:00,52.0,47.0,29.87,WSW,258,0.0,0.0,84,0.00,,,0.00,vanprod,2013-11-07 07:25:00,
2013-11-07 02:35:00,51.9,48.0,29.87,WSW,258,1.0,0.0,85,0.00,,,0.00,vanprod,2013-11-07 07:35:00,
2013-11-07 02:45:00,51.7,47.0,29.85,WSW,258,1.0,2.0,85,0.00,,,0.00,vanprod,2013-11-07 07:45:00,
2013-11-07 02:55:00,51.9,48.0,29.85,SSE,167,1.0,0.0,86,0.00,,,0.00,vanprod,2013-11-07 07:55:00,
2013-11-07 03:05:00,51.9,48.0,29.85,SSE,167,1.0,2.0,86,0.00,,,0.00,vanprod,2013-11-07 08:05:00,
2013-11-07 03:15:00,51.9,48.0,29.84,SSE,167,2.0,2.0,87,0.00,,,0.00,vanprod,2013-11-07 08:15:00,
2013-11-07 03:25:00,51.9,48.0,29.84,South,169,2.0,2.0,88,0.00,,,0.00,vanprod,2013-11-07 08:25:00,
2013-11-07 03:35:00,52.0,49.0,29.83,South,169,2.0,0.0,88,0.00,,,0.00,vanprod,2013-11-07 08:35:00,
2013-11-07 03:45:00,52.2,49.0,29.83,South,169,2.0,3.0,88,0.00,,,0.00,vanprod,2013-11-07 08:45:00,
2013-11-07 03:55:00,52.5,49.0,29.83,South,169,1.0,1.0,88,0.00,,,0.00,vanprod,2013-11-07 08:55:00,
2013-11-07 04:05:00,52.6,49.0,29.82,ESE,113,2.0,3.0,88,0.00,,,0.00,vanprod,2013-11-07 09:05:00,
2013-11-07 04:15:00,52.8,49.0,29.82,ESE,113,1.0,0.0,88,0.00,,,0.00,vanprod,2013-11-07 09:15:00,
2013-11-07 04:25:00,52.9,49.0,29.82,WSW,240,2.0,2.0,87,0.00,,,0.00,vanprod,2013-11-07 09:25:00,
2013-11-07 04:35:00,52.9,49.0,29.80,WSW,240,1.0,0.0,88,0.00,,,0.00,vanprod,2013-11-07 09:35:00,
2013-11-07 04:45:00,52.9,49.0,29.80,WSW,240,0.0,1.0,88,0.00,,,0.00,vanprod,2013-11-07 09:45:00,
2013-11-07 04:55:00,52.8,49.0,29.80,WSW,240,1.0,0.0,88,0.00,,,0.00,vanprod,2013-11-07 09:55:00,
2013-11-07 05:05:00,52.9,50.0,29.79,SSW,196,0.0,1.0,89,0.00,,,0.00,vanprod,2013-11-07 10:05:00,
2013-11-07 05:15:00,53.2,50.0,29.78,SSW,196,1.0,0.0,89,0.00,,,0.00,vanprod,2013-11-07 10:15:00,
2013-11-07 05:25:00,53.3,50.0,29.78,SSW,196,1.0,0.0,89,0.00,,,0.00,vanprod,2013-11-07 10:25:00,
2013-11-07 05:35:00,53.5,50.0,29.77,SSW,202,0.0,0.0,89,0.00,,,0.00,vanprod,2013-11-07 10:35:00,
2013-11-07 05:45:00,53.5,51.0,29.77,SSW,202,0.0,0.0,90,0.00,,,0.00,vanprod,2013-11-07 10:45:00,
2013-11-07 05:55:00,53.6,51.0,29.77,SSW,202,0.0,0.0,90,0.00,,,0.00,vanprod,2013-11-07 10:55:00,
2013-11-07 06:05:00,53.8,51.0,29.76,North,355,0.0,0.0,90,0.00,,,0.00,vanprod,2013-11-07 11:05:00,
2013-11-07 06:15:00,53.9,51.0,29.76,North,355,0.0,0.0,91,0.00,,,0.00,vanprod,2013-11-07 11:15:00,
2013-11-07 06:25:00,54.1,51.0,29.76,ESE,115,0.0,0.0,91,0.00,,,0.00,vanprod,2013-11-07 11:25:00,
2013-11-07 06:35:00,54.4,52.0,29.75,ESE,115,0.0,2.0,91,0.00,,,0.00,vanprod,2013-11-07 11:35:00,
2013-11-07 06:45:00,54.7,52.0,29.74,ESE,115,0.0,0.0,92,0.00,,,0.00,vanprod,2013-11-07 11:45:00,
2013-11-07 06:55:00,55.3,53.0,29.74,ESE,121,0.0,0.0,92,0.00,,,0.00,vanprod,2013-11-07 11:55:00,
2013-11-07 07:05:00,55.9,54.0,29.73,ESE,121,0.0,1.0,92,0.00,,,0.00,vanprod,2013-11-07 12:05:00,
2013-11-07 07:15:00,56.7,54.0,29.71,ESE,121,1.0,0.0,90,0.00,,,0.00,vanprod,2013-11-07 12:15:00,
2013-11-07 07:25:00,57.2,54.0,29.71,SW,221,2.0,2.0,89,0.00,,,0.00,vanprod,2013-11-07 12:25:00,
2013-11-07 07:35:00,57.5,54.0,29.72,SW,221,1.0,0.0,88,0.00,,,0.00,vanprod,2013-11-07 12:35:00,
2013-11-07 07:45:00,57.6,54.0,29.72,SW,221,0.0,0.0,88,0.00,,,0.00,vanprod,2013-11-07 12:45:00,
2013-11-07 07:55:00,58.3,55.0,29.72,NNW,347,2.0,2.0,88,0.00,,,0.00,vanprod,2013-11-07 12:55:00,
2013-11-07 08:05:00,58.7,55.0,29.71,NNW,347,0.0,0.0,87,0.00,,,0.00,vanprod,2013-11-07 13:05:00,
2013-11-07 08:15:00,59.3,55.0,29.70,NNW,347,0.0,0.0,86,0.00,,,0.00,vanprod,2013-11-07 13:15:00,
2013-11-07 08:25:00,59.8,55.0,29.70,SSW,206,1.0,0.0,85,0.00,,,0.00,vanprod,2013-11-07 13:25:00,
2013-11-07 08:35:00,60.4,56.0,29.70,SSW,206,1.0,0.0,84,0.00,,,0.00,vanprod,2013-11-07 13:35:00,
2013-11-07 08:45:00,60.7,56.0,29.69,SSW,206,0.0,0.0,84,0.00,,,0.00,vanprod,2013-11-07 13:45:00,
2013-11-07 08:55:00,61.2,56.0,29.69,SE,146,1.0,0.0,83,0.00,,,0.00,vanprod,2013-11-07 13:55:00,
2013-11-07 09:05:00,61.5,56.0,29.68,SE,146,1.0,2.0,83,0.00,,,0.00,vanprod,2013-11-07 14:05:00,
2013-11-07 09:15:00,61.8,56.0,29.68,SE,146,1.0,1.0,82,0.00,,,0.00,vanprod,2013-11-07 14:15:00,
2013-11-07 09:25:00,62.1,56.0,29.68,NE,47,2.0,3.0,81,0.00,,,0.00,vanprod,2013-11-07 14:25:00,
2013-11-07 09:35:00,62.3,56.0,29.67,NE,47,2.0,2.0,80,0.00,,,0.00,vanprod,2013-11-07 14:35:00,
2013-11-07 09:45:00,62.4,56.0,29.67,NE,47,1.0,0.0,80,0.00,,,0.00,vanprod,2013-11-07 14:45:00,
2013-11-07 09:55:00,62.1,56.0,29.67,SW,221,1.0,3.0,80,0.00,,,0.00,vanprod,2013-11-07 14:55:00,
2013-11-07 10:05:00,62.1,56.0,29.67,SW,221,1.0,0.0,80,0.00,,,0.00,vanprod,2013-11-07 15:05:00,
2013-11-07 10:15:00,62.0,56.0,29.67,SW,221,1.0,0.0,80,0.00,,,0.00,vanprod,2013-11-07 15:15:00,
2013-11-07 10:25:00,61.8,56.0,29.67,East,80,1.0,0.0,80,0.00,,,0.00,vanprod,2013-11-07 15:25:00,
2013-11-07 10:35:00,61.8,56.0,29.66,East,80,1.0,2.0,81,0.00,,,0.00,vanprod,2013-11-07 15:35:00,
2013-11-07 10:45:00,61.8,56.0,29.65,East,80,1.0,1.0,82,0.00,,,0.00,vanprod,2013-11-07 15:45:00,
2013-11-07 10:55:00,61.8,56.0,29.65,East,80,1.0,0.0,81,0.00,,,0.00,vanprod,2013-11-07 15:55:00,
2013-11-07 11:05:00,61.8,56.0,29.64,South,171,1.0,1.0,80,0.00,,,0.00,vanprod,2013-11-07 16:05:00,
2013-11-07 11:15:00,62.1,56.0,29.64,South,171,2.0,2.0,79,0.00,,,0.00,vanprod,2013-11-07 16:15:00,
2013-11-07 11:25:00,62.3,55.0,29.64,South,171,2.0,6.0,78,0.00,,,0.00,vanprod,2013-11-07 16:25:00,
2013-11-07 11:35:00,62.3,55.0,29.64,SSE,149,2.0,2.0,78,0.00,,,0.00,vanprod,2013-11-07 16:35:00,
2013-11-07 11:45:00,62.1,55.0,29.62,SSE,149,2.0,2.0,78,0.00,,,0.00,vanprod,2013-11-07 16:45:00,
2013-11-07 11:55:00,62.1,55.0,29.62,NNW,337,1.0,3.0,78,0.00,,,0.00,vanprod,2013-11-07 16:55:00,
2013-11-07 12:05:00,62.1,55.0,29.62,NNW,337,2.0,2.0,78,0.00,,,0.00,vanprod,2013-11-07 17:05:00,
2013-11-07 12:15:00,62.0,55.0,29.62,NNW,337,2.0,2.0,78,0.00,,,0.00,vanprod,2013-11-07 17:15:00,
2013-11-07 12:25:00,62.0,55.0,29.62,ESE,121,1.0,0.0,78,0.00,,,0.00,vanprod,2013-11-07 17:25:00,
2013-11-07 12:35:00,61.8,56.0,29.60,ESE,121,1.0,0.0,82,0.00,,,0.00,vanprod,2013-11-07 17:35:00,
2013-11-07 12:45:00,61.2,56.0,29.59,ESE,121,0.0,0.0,83,0.00,,,0.00,vanprod,2013-11-07 17:45:00,
2013-11-07 12:55:00,60.9,56.0,29.59,ESE,121,0.0,0.0,84,0.00,,,0.01,vanprod,2013-11-07 17:55:00,
2013-11-07 13:05:00,60.4,57.0,29.59,SSE,159,0.0,0.0,87,0.00,,,0.01,vanprod,2013-11-07 18:05:00,
2013-11-07 13:15:00,59.9,56.0,29.59,SSE,159,0.0,0.0,88,0.05,,,0.02,vanprod,2013-11-07 18:15:00,
2013-11-07 13:25:00,59.6,56.0,29.59,SSE,159,0.0,0.0,89,0.00,,,0.03,vanprod,2013-11-07 18:25:00,
2013-11-07 13:35:00,59.3,56.0,29.60,SSE,166,0.0,0.0,90,0.05,,,0.04,vanprod,2013-11-07 18:35:00,
2013-11-07 13:45:00,58.9,56.0,29.59,SSE,166,0.0,0.0,91,0.05,,,0.04,vanprod,2013-11-07 18:45:00,
2013-11-07 13:55:00,58.7,56.0,29.59,SSE,166,0.0,0.0,91,0.00,,,0.05,vanprod,2013-11-07 18:55:00,
2013-11-07 14:05:00,58.4,56.0,29.59,SSE,166,0.0,1.0,92,0.00,,,0.05,vanprod,2013-11-07 19:05:00,
2013-11-07 14:15:00,57.3,55.0,29.60,SSE,166,2.0,3.0,91,0.04,,,0.06,vanprod,2013-11-07 19:15:00,
2013-11-07 14:25:00,56.0,53.0,29.60,SSE,166,2.0,2.0,89,0.00,,,0.06,vanprod,2013-11-07 19:25:00,
2013-11-07 14:35:00,54.8,51.0,29.60,SSE,166,2.0,2.0,88,0.00,,,0.06,vanprod,2013-11-07 19:35:00,
2013-11-07 14:45:00,54.4,51.0,29.61,SSE,166,0.0,0.0,90,0.00,,,0.07,vanprod,2013-11-07 19:45:00,
2013-11-07 14:55:00,54.1,51.0,29.61,East,87,0.0,2.0,91,0.00,,,0.07,vanprod,2013-11-07 19:55:00,
2013-11-07 15:05:00,53.8,51.0,29.62,East,87,1.0,0.0,92,0.00,,,0.07,vanprod,2013-11-07 20:05:00,
2013-11-07 15:15:00,53.5,51.0,29.62,East,87,1.0,0.0,91,0.00,,,0.07,vanprod,2013-11-07 20:15:00,
2013-11-07 15:25:00,53.2,51.0,29.62,East,87,1.0,0.0,92,0.00,,,0.08,vanprod,2013-11-07 20:25:00,
2013-11-07 15:35:00,52.9,51.0,29.61,East,87,1.0,0.0,92,0.00,,,0.08,vanprod,2013-11-07 20:35:00,
2013-11-07 15:45:00,52.6,50.0,29.62,East,87,1.0,0.0,92,0.00,,,0.08,vanprod,2013-11-07 20:45:00,
2013-11-07 15:55:00,52.3,50.0,29.62,East,87,1.0,0.0,92,0.00,,,0.09,vanprod,2013-11-07 20:55:00,
2013-11-07 16:05:00,52.0,50.0,29.62,East,87,1.0,0.0,92,0.05,,,0.10,vanprod,2013-11-07 21:05:00,
2013-11-07 16:15:00,51.6,49.0,29.61,East,87,0.0,0.0,92,0.05,,,0.10,vanprod,2013-11-07 21:15:00,
2013-11-07 16:25:00,51.3,49.0,29.61,East,87,0.0,0.0,93,0.04,,,0.11,vanprod,2013-11-07 21:25:00,
2013-11-07 16:35:00,51.1,49.0,29.60,East,87,0.0,0.0,93,0.00,,,0.11,vanprod,2013-11-07 21:35:00,
2013-11-07 16:45:00,51.0,49.0,29.62,East,87,0.0,0.0,94,0.00,,,0.11,vanprod,2013-11-07 21:45:00,
2013-11-07 16:55:00,51.0,49.0,29.62,East,87,0.0,0.0,94,0.00,,,0.11,vanprod,2013-11-07 21:55:00,
2013-11-07 17:05:00,50.8,49.0,29.62,East,87,0.0,0.0,94,0.00,,,0.11,vanprod,2013-11-07 22:05:00,
2013-11-07 17:15:00,50.8,49.0,29.63,East,87,0.0,0.0,95,0.00,,,0.11,vanprod,2013-11-07 22:15:00,
2013-11-07 17:25:00,50.7,49.0,29.63,East,87,0.0,0.0,95,0.00,,,0.11,vanprod,2013-11-07 22:25:00,
2013-11-07 17:35:00,50.4,49.0,29.63,East,87,0.0,0.0,95,0.00,,,0.11,vanprod,2013-11-07 22:35:00,
2013-11-07 17:45:00,50.1,49.0,29.64,East,87,0.0,0.0,95,0.00,,,0.11,vanprod,2013-11-07 22:45:00,
2013-11-07 17:55:00,49.6,48.0,29.64,East,87,1.0,0.0,94,0.00,,,0.11,vanprod,2013-11-07 22:55:00,
2013-11-07 18:05:00,49.2,47.0,29.65,East,87,2.0,0.0,92,0.00,,,0.11,vanprod,2013-11-07 23:05:00,
2013-11-07 18:15:00,48.9,46.0,29.65,East,87,2.0,0.0,91,0.00,,,0.11,vanprod,2013-11-07 23:15:00,
2013-11-07 18:25:00,48.6,45.0,29.65,ESE,109,2.0,5.0,88,0.00,,,0.11,vanprod,2013-11-07 23:25:00,
2013-11-07 18:35:00,48.5,44.0,29.66,ESE,109,5.0,6.0,84,0.00,,,0.11,vanprod,2013-11-07 23:35:00,
2013-11-07 18:45:00,48.2,43.0,29.67,ESE,109,4.0,0.0,83,0.00,,,0.11,vanprod,2013-11-07 23:45:00,
2013-11-07 18:55:00,47.9,42.0,29.67,ESE,109,4.0,10.0,80,0.00,,,0.11,vanprod,2013-11-07 23:55:00,
2013-11-07 19:05:00,47.7,42.0,29.68,East,88,4.0,5.0,79,0.00,,,0.11,vanprod,2013-11-08 00:05:00,
2013-11-07 19:15:00,47.4,42.0,29.69,East,88,2.0,2.0,80,0.00,,,0.11,vanprod,2013-11-08 00:15:00,
2013-11-07 19:25:00,47.1,41.0,29.69,East,86,2.0,5.0,79,0.00,,,0.11,vanprod,2013-11-08 00:25:00,
2013-11-07 19:35:00,46.8,40.0,29.69,East,86,4.0,4.0,77,0.00,,,0.11,vanprod,2013-11-08 00:35:00,
2013-11-07 19:45:00,46.4,40.0,29.69,East,86,2.0,7.0,77,0.00,,,0.11,vanprod,2013-11-08 00:45:00,
2013-11-07 19:55:00,46.1,39.0,29.69,WNW,290,3.0,6.0,76,0.00,,,0.11,vanprod,2013-11-08 00:55:00,
2013-11-07 20:05:00,45.7,39.0,29.70,WNW,290,3.0,3.0,77,0.00,,,0.11,vanprod,2013-11-08 01:05:00,
2013-11-07 20:15:00,45.1,37.0,29.70,WNW,290,3.0,3.0,74,0.00,,,0.11,vanprod,2013-11-08 01:15:00,
2013-11-07 20:25:00,44.8,36.0,29.70,ESE,120,3.0,3.0,72,0.00,,,0.11,vanprod,2013-11-08 01:25:00,
2013-11-07 20:35:00,44.5,37.0,29.70,ESE,120,2.0,3.0,74,0.00,,,0.11,vanprod,2013-11-08 01:35:00,
2013-11-07 20:45:00,44.2,37.0,29.70,ESE,120,2.0,2.0,74,0.00,,,0.11,vanprod,2013-11-08 01:45:00,
2013-11-07 20:55:00,43.9,35.0,29.70,South,169,4.0,4.0,71,0.00,,,0.11,vanprod,2013-11-08 01:55:00,
2013-11-07 21:05:00,43.5,35.0,29.70,South,169,2.0,6.0,73,0.00,,,0.11,vanprod,2013-11-08 02:05:00,
2013-11-07 21:15:00,43.3,35.0,29.71,South,169,3.0,3.0,72,0.00,,,0.11,vanprod,2013-11-08 02:15:00,
2013-11-07 21:25:00,43.1,35.0,29.71,East,93,2.0,2.0,73,0.00,,,0.11,vanprod,2013-11-08 02:25:00,
2013-11-07 21:35:00,42.6,35.0,29.71,East,93,2.0,2.0,73,0.00,,,0.11,vanprod,2013-11-08 02:35:00,
2013-11-07 21:45:00,42.3,34.0,29.71,East,93,1.0,0.0,73,0.00,,,0.11,vanprod,2013-11-08 02:45:00,
2013-11-07 21:55:00,42.1,34.0,29.71,East,93,1.0,0.0,74,0.00,,,0.11,vanprod,2013-11-08 02:55:00,
2013-11-07 22:05:00,41.6,34.0,29.71,East,93,0.0,0.0,74,0.00,,,0.11,vanprod,2013-11-08 03:05:00,
2013-11-07 22:15:00,41.2,35.0,29.71,SSW,196,0.0,0.0,78,0.00,,,0.11,vanprod,2013-11-08 03:15:00,
2013-11-07 22:25:00,40.6,34.0,29.71,SSW,196,0.0,0.0,78,0.00,,,0.11,vanprod,2013-11-08 03:25:00,
2013-11-07 22:35:00,40.1,34.0,29.71,SSW,196,0.0,0.0,79,0.00,,,0.11,vanprod,2013-11-08 03:35:00,
2013-11-07 22:45:00,39.5,34.0,29.71,SSW,196,0.0,0.0,80,0.00,,,0.11,vanprod,2013-11-08 03:45:00,
2013-11-07 22:55:00,38.9,34.0,29.71,SSW,196,0.0,0.0,82,0.00,,,0.11,vanprod,2013-11-08 03:55:00,
2013-11-07 23:05:00,38.5,33.0,29.72,SSW,196,0.0,0.0,81,0.00,,,0.11,vanprod,2013-11-08 04:05:00,
2013-11-07 23:15:00,38.5,34.0,29.72,SSW,196,0.0,0.0,84,0.00,,,0.11,vanprod,2013-11-08 04:15:00,
2013-11-07 23:25:00,38.5,35.0,29.72,SSW,196,0.0,0.0,86,0.00,,,0.11,vanprod,2013-11-08 04:25:00,
2013-11-07 23:35:00,38.6,34.0,29.72,SSW,196,0.0,0.0,85,0.00,,,0.11,vanprod,2013-11-08 04:35:00,
2013-11-07 23:45:00,38.8,35.0,29.72,SSW,196,0.0,0.0,87,0.00,,,0.11,vanprod,2013-11-08 04:45:00,
2013-11-07 23:55:00,38.8,35.0,29.72,SSW,196,0.0,0.0,86,0.00,,,0.11,vanprod,2013-11-08 04:55:00,